This is the latest recevied weather packets stored in our database for station/object LU1MQF-13. If no packets are shown the sender has not sent any weather packets the latest 10 day(s).
| Time | Temp. | Humidity | Pressure | Rain* | Wind** | Luminosity | Snow |
|---|---|---|---|---|---|---|---|
| 1777867925 | 13.89° C | 44% | 933.2 hPa | - | - | - | - |
| 1777867025 | 13.89° C | 44% | 933.3 hPa | - | - | - | - |
| 1777866125 | 13.89° C | 45% | 933.5 hPa | - | - | - | - |
| 1777865225 | 15° C | 48% | 933.6 hPa | - | - | - | - |
| 1777864325 | 15° C | 47% | 933.5 hPa | - | - | - | - |
| 1777863424 | 16.11° C | 49% | 933.6 hPa | - | - | - | - |
| 1777862525 | 13.89° C | 42% | 933.7 hPa | - | - | - | - |
| 1777861625 | 15° C | 43% | 933.7 hPa | - | - | - | - |
| 1777860725 | 15° C | 45% | 933.6 hPa | - | - | - | - |
| 1777859825 | 15° C | 45% | 933.5 hPa | - | - | - | - |
| 1777858924 | 15° C | 43% | 933.7 hPa | - | - | - | - |
| 1777858025 | 15° C | 43% | 933.7 hPa | - | - | - | - |
| 1777857124 | 15° C | 44% | 933.9 hPa | - | - | - | - |
| 1777856225 | 15° C | 44% | 934 hPa | - | - | - | - |
| 1777855324 | 15° C | 45% | 933.9 hPa | - | - | - | - |
| 1777854424 | 16.11° C | 46% | 933.7 hPa | - | - | - | - |
| 1777853524 | 16.11° C | 47% | 933.9 hPa | - | - | - | - |
| 1777852624 | 16.11° C | 53% | 934.1 hPa | - | - | - | - |
| 1777851725 | 16.11° C | 47% | 933.9 hPa | - | - | - | - |
| 1777850824 | 16.11° C | 46% | 934 hPa | - | - | - | - |
| 1777849924 | 16.11° C | 43% | 934.2 hPa | - | - | - | - |
| 1777848123 | 16.11° C | 35% | 934.2 hPa | - | - | - | - |
| 1777847224 | 17.22° C | 35% | 934 hPa | - | - | - | - |
| 1777846324 | 17.22° C | 35% | 933.8 hPa | - | - | - | - |
| 1777845424 | 17.78° C | 35% | 933.5 hPa | - | - | - | - |
* Rain since midnight (hover to see other rain measurements)
** Current wind speed in m/s (hover to see current wind gust speed)